Time,TemperatureF,DewpointF,PressureIn,WindDirection,WindDirectionDegrees,WindSpeedMPH,WindSpeedGustMPH,Humidity,HourlyPrecipIn,Conditions,Clouds,dailyrainin,SoftwareType,DateUTC
2013-02-19 00:06:00,32.2,-5.4,29.91,ENE,67,0.0,-999.0,19,-99.99,,,0.00,Acu-Link.com,2013-02-19 07:06:00,
2013-02-19 00:21:00,31.1,-6.3,29.91,NNW,337,0.0,-999.0,19,-99.99,,,0.00,Acu-Link.com,2013-02-19 07:21:00,
2013-02-19 00:36:00,30.0,-7.2,29.91,NNE,22,0.0,-999.0,19,-99.99,,,0.00,Acu-Link.com,2013-02-19 07:36:00,
2013-02-19 00:51:00,29.3,-6.7,29.91,WNW,292,0.0,-999.0,20,-99.99,,,0.00,Acu-Link.com,2013-02-19 07:51:00,
2013-02-19 01:07:00,29.3,-6.7,29.92,WNW,292,0.0,-999.0,20,-99.99,,,0.00,Acu-Link.com,2013-02-19 08:07:00,
2013-02-19 01:22:00,29.1,-6.9,29.92,WNW,292,0.0,-999.0,20,-99.99,,,0.00,Acu-Link.com,2013-02-19 08:22:00,
2013-02-19 01:37:00,28.6,-6.3,29.92,NNW,337,0.0,-999.0,21,-99.99,,,0.00,Acu-Link.com,2013-02-19 08:37:00,
2013-02-19 01:52:00,28.4,-6.5,29.90,NNE,22,0.0,-999.0,21,-99.99,,,0.00,Acu-Link.com,2013-02-19 08:52:00,
2013-02-19 02:17:00,28.2,-6.6,29.90,NNE,22,2.2,-999.0,21,-99.99,,,0.00,Acu-Link.com,2013-02-19 09:17:00,
2013-02-19 02:32:00,27.9,-7.9,29.91,NNE,22,0.0,-999.0,20,-99.99,,,0.00,Acu-Link.com,2013-02-19 09:32:00,
2013-02-19 02:48:00,27.0,-6.8,29.90,ENE,67,0.0,-999.0,22,-99.99,,,0.00,Acu-Link.com,2013-02-19 09:48:00,
2013-02-19 03:03:00,26.2,-5.6,29.89,NE,45,1.6,-999.0,24,-99.99,,,0.00,Acu-Link.com,2013-02-19 10:03:00,
2013-02-19 03:18:00,25.5,-6.2,29.88,NNW,337,2.7,-999.0,24,-99.99,,,0.00,Acu-Link.com,2013-02-19 10:18:00,
2013-02-19 03:33:00,25.9,-6.8,29.89,NNW,337,0.0,-999.0,23,-99.99,,,0.00,Acu-Link.com,2013-02-19 10:33:00,
2013-02-19 03:48:00,25.0,-6.7,29.88,NNW,337,0.0,-999.0,24,-99.99,,,0.00,Acu-Link.com,2013-02-19 10:48:00,
2013-02-19 04:03:00,23.9,-5.9,29.88,ESE,112,2.2,-999.0,26,-99.99,,,0.00,Acu-Link.com,2013-02-19 11:03:00,
2013-02-19 04:19:00,24.3,-4.1,29.87,East,90,2.7,-999.0,28,-99.99,,,0.00,Acu-Link.com,2013-02-19 11:19:00,
2013-02-19 04:34:00,23.7,-4.6,29.87,ENE,67,3.1,-999.0,28,-99.99,,,0.00,Acu-Link.com,2013-02-19 11:34:00,
2013-02-19 04:49:00,23.2,-3.6,29.87,ENE,67,4.7,-999.0,30,-99.99,,,0.00,Acu-Link.com,2013-02-19 11:49:00,
2013-02-19 05:04:00,23.5,-3.3,29.86,NE,45,3.1,-999.0,30,-99.99,,,0.00,Acu-Link.com,2013-02-19 12:04:00,
2013-02-19 05:19:00,23.2,-1.6,29.86,NE,45,0.0,-999.0,33,-99.99,,,0.00,Acu-Link.com,2013-02-19 12:19:00,
2013-02-19 05:35:00,23.0,-1.8,29.86,East,90,2.2,-999.0,33,-99.99,,,0.00,Acu-Link.com,2013-02-19 12:35:00,
2013-02-19 05:50:00,23.0,-3.1,29.86,North,0,2.7,-999.0,31,-99.99,,,0.00,Acu-Link.com,2013-02-19 12:50:00,
2013-02-19 06:05:00,23.0,-3.1,29.86,NNW,337,2.7,-999.0,31,-99.99,,,0.00,Acu-Link.com,2013-02-19 13:05:00,
2013-02-19 06:20:00,23.4,-2.8,29.86,NNW,337,2.2,-999.0,31,-99.99,,,0.00,Acu-Link.com,2013-02-19 13:20:00,
2013-02-19 06:35:00,24.6,-2.3,29.87,NNW,337,4.3,-999.0,30,-99.99,,,0.00,Acu-Link.com,2013-02-19 13:35:00,
2013-02-19 06:51:00,25.0,-2.7,29.87,NNW,337,3.8,-999.0,29,-99.99,,,0.00,Acu-Link.com,2013-02-19 13:51:00,
2013-02-19 07:06:00,26.4,3.1,29.87,NNE,22,2.2,-999.0,36,-99.99,,,0.00,Acu-Link.com,2013-02-19 14:06:00,
2013-02-19 07:21:00,29.7,-0.2,29.87,NNE,22,4.7,-999.0,27,-99.99,,,0.00,Acu-Link.com,2013-02-19 14:21:00,
2013-02-19 07:36:00,30.2,1.1,29.87,NNE,22,2.2,-999.0,28,-99.99,,,0.00,Acu-Link.com,2013-02-19 14:36:00,
2013-02-19 07:52:00,32.9,1.0,29.87,NE,45,5.1,-999.0,25,-99.99,,,0.00,Acu-Link.com,2013-02-19 14:52:00,
2013-02-19 08:07:00,30.6,-0.2,29.88,North,0,5.8,-999.0,26,-99.99,,,0.00,Acu-Link.com,2013-02-19 15:07:00,
2013-02-19 08:22:00,32.2,0.4,29.89,NNE,22,5.8,-999.0,25,-99.99,,,0.00,Acu-Link.com,2013-02-19 15:22:00,
2013-02-19 08:37:00,33.3,1.3,29.88,North,0,4.7,-999.0,25,-99.99,,,0.00,Acu-Link.com,2013-02-19 15:37:00,
2013-02-19 08:52:00,33.4,1.4,29.87,NNE,22,5.1,-999.0,25,-99.99,,,0.00,Acu-Link.com,2013-02-19 15:52:00,
2013-02-19 09:07:00,34.5,1.5,29.87,North,0,7.4,-999.0,24,-99.99,,,0.00,Acu-Link.com,2013-02-19 16:07:00,
2013-02-19 09:23:00,36.3,1.2,29.87,NW,315,3.1,-999.0,22,-99.99,,,0.00,Acu-Link.com,2013-02-19 16:23:00,
2013-02-19 09:38:00,37.0,1.8,29.87,NE,45,3.8,-999.0,22,-99.99,,,0.00,Acu-Link.com,2013-02-19 16:38:00,
2013-02-19 09:53:00,39.6,1.8,29.85,NE,45,5.1,-999.0,20,-99.99,,,0.00,Acu-Link.com,2013-02-19 16:53:00,
2013-02-19 10:08:00,39.2,2.6,29.85,NNE,22,4.3,-999.0,21,-99.99,,,0.00,Acu-Link.com,2013-02-19 17:08:00,
2013-02-19 10:23:00,40.3,3.5,29.84,ENE,67,4.7,-999.0,21,-99.99,,,0.00,Acu-Link.com,2013-02-19 17:23:00,
2013-02-19 10:39:00,41.2,2.1,29.83,North,0,5.1,-999.0,19,-99.99,,,0.00,Acu-Link.com,2013-02-19 17:39:00,
2013-02-19 10:54:00,43.9,4.3,29.82,ENE,67,3.8,-999.0,19,-99.99,,,0.00,Acu-Link.com,2013-02-19 17:54:00,
2013-02-19 11:09:00,46.6,2.8,29.81,NNE,22,7.4,-999.0,16,-99.99,,,0.00,Acu-Link.com,2013-02-19 18:09:00,
2013-02-19 11:24:00,47.8,2.5,29.79,ESE,112,2.2,-999.0,15,-99.99,,,0.00,Acu-Link.com,2013-02-19 18:24:00,
2013-02-19 11:39:00,48.7,1.7,29.78,North,0,4.3,-999.0,14,-99.99,,,0.00,Acu-Link.com,2013-02-19 18:39:00,
2013-02-19 11:55:00,51.4,2.3,29.77,ENE,67,2.7,-999.0,13,-99.99,,,0.00,Acu-Link.com,2013-02-19 18:55:00,
2013-02-19 12:10:00,51.1,2.0,29.76,SSW,202,1.1,-999.0,13,-99.99,,,0.00,Acu-Link.com,2013-02-19 19:10:00,
2013-02-19 12:25:00,53.2,3.7,29.74,NNW,337,3.8,-999.0,13,-99.99,,,0.00,Acu-Link.com,2013-02-19 19:25:00,
2013-02-19 12:40:00,55.2,5.3,29.72,ESE,112,2.7,-999.0,13,-99.99,,,0.00,Acu-Link.com,2013-02-19 19:40:00,
2013-02-19 12:55:00,55.0,3.4,29.71,West,270,1.6,-999.0,12,-99.99,,,0.00,Acu-Link.com,2013-02-19 19:55:00,
2013-02-19 13:11:00,56.3,6.1,29.69,South,180,6.7,-999.0,13,-99.99,,,0.00,Acu-Link.com,2013-02-19 20:11:00,
2013-02-19 13:26:00,59.0,6.5,29.66,SSW,202,5.8,-999.0,12,-99.99,,,0.00,Acu-Link.com,2013-02-19 20:26:00,
2013-02-19 13:41:00,58.1,5.8,29.66,WSW,247,3.8,-999.0,12,-99.99,,,0.00,Acu-Link.com,2013-02-19 20:41:00,
2013-02-19 13:56:00,60.1,7.3,29.65,SW,225,3.8,-999.0,12,-99.99,,,0.00,Acu-Link.com,2013-02-19 20:56:00,
2013-02-19 14:11:00,59.5,8.7,29.64,SE,135,8.9,-999.0,13,-99.99,,,0.00,Acu-Link.com,2013-02-19 21:11:00,
2013-02-19 14:27:00,59.5,8.7,29.63,SW,225,5.8,-999.0,13,-99.99,,,0.00,Acu-Link.com,2013-02-19 21:27:00,
2013-02-19 14:42:00,60.8,9.7,29.62,SE,135,3.8,-999.0,13,-99.99,,,0.00,Acu-Link.com,2013-02-19 21:42:00,
2013-02-19 14:57:00,60.6,9.5,29.60,SSW,202,4.7,-999.0,13,-99.99,,,0.00,Acu-Link.com,2013-02-19 21:57:00,
2013-02-19 15:12:00,60.4,9.4,29.60,SW,225,5.1,-999.0,13,-99.99,,,0.00,Acu-Link.com,2013-02-19 22:12:00,
2013-02-19 15:28:00,60.3,9.2,29.59,West,270,11.0,-999.0,13,-99.99,,,0.00,Acu-Link.com,2013-02-19 22:28:00,
2013-02-19 15:43:00,59.4,8.5,29.59,SW,225,3.8,-999.0,13,-99.99,,,0.00,Acu-Link.com,2013-02-19 22:43:00,
2013-02-19 15:58:00,60.4,9.4,29.58,South,180,6.7,-999.0,13,-99.99,,,0.00,Acu-Link.com,2013-02-19 22:58:00,
2013-02-19 16:13:00,61.0,11.5,29.57,SSE,157,8.9,-999.0,14,-99.99,,,0.00,Acu-Link.com,2013-02-19 23:13:00,
2013-02-19 16:28:00,59.9,12.2,29.56,South,180,11.4,-999.0,15,-99.99,,,0.00,Acu-Link.com,2013-02-19 23:28:00,
2013-02-19 16:44:00,59.4,14.6,29.56,SSW,202,8.3,-999.0,17,-99.99,,,0.00,Acu-Link.com,2013-02-19 23:44:00,
2013-02-19 16:59:00,57.9,15.9,29.56,South,180,9.4,-999.0,19,-99.99,,,0.00,Acu-Link.com,2013-02-19 23:59:00,
2013-02-19 17:14:00,56.7,19.3,29.56,SSE,157,11.0,-999.0,23,-99.99,,,0.00,Acu-Link.com,2013-02-20 00:14:00,
2013-02-19 17:29:00,55.9,23.3,29.55,WSW,247,11.4,-999.0,28,-99.99,,,0.00,Acu-Link.com,2013-02-20 00:29:00,
2013-02-19 17:44:00,55.4,23.7,29.56,South,180,7.4,-999.0,29,-99.99,,,0.00,Acu-Link.com,2013-02-20 00:44:00,
2013-02-19 17:59:00,55.0,24.2,29.56,South,180,9.8,-999.0,30,-99.99,,,0.00,Acu-Link.com,2013-02-20 00:59:00,
2013-02-19 18:15:00,54.1,27.1,29.56,South,180,9.4,-999.0,35,-99.99,,,0.00,Acu-Link.com,2013-02-20 01:15:00,
2013-02-19 18:30:00,53.4,28.5,29.55,SSE,157,10.3,-999.0,38,-99.99,,,0.00,Acu-Link.com,2013-02-20 01:30:00,
2013-02-19 18:45:00,53.1,30.6,29.55,SSE,157,11.9,-999.0,42,-99.99,,,0.00,Acu-Link.com,2013-02-20 01:45:00,
2013-02-19 19:00:00,52.3,32.7,29.56,South,180,21.3,-999.0,47,-99.99,,,0.00,Acu-Link.com,2013-02-20 02:00:00,
2013-02-19 19:16:00,51.4,35.4,29.57,South,180,17.0,-999.0,54,-99.99,,,0.00,Acu-Link.com,2013-02-20 02:16:00,
2013-02-19 19:31:00,51.4,35.8,29.57,South,180,13.4,-999.0,55,-99.99,,,0.00,Acu-Link.com,2013-02-20 02:31:00,
2013-02-19 19:46:00,51.1,35.0,29.57,SSW,202,15.0,-999.0,54,-99.99,,,0.00,Acu-Link.com,2013-02-20 02:46:00,
2013-02-19 20:01:00,50.5,34.5,29.57,SE,135,9.4,-999.0,54,-99.99,,,0.00,Acu-Link.com,2013-02-20 03:01:00,
2013-02-19 20:16:00,49.8,34.8,29.56,SE,135,15.4,-999.0,56,-99.99,,,0.00,Acu-Link.com,2013-02-20 03:16:00,
2013-02-19 20:32:00,49.3,35.1,29.57,South,180,9.8,-999.0,58,-99.99,,,0.00,Acu-Link.com,2013-02-20 03:32:00,
2013-02-19 20:47:00,48.9,35.2,29.57,South,180,10.3,-999.0,59,-99.99,,,0.00,Acu-Link.com,2013-02-20 03:47:00,
2013-02-19 21:02:00,48.7,35.5,29.58,SW,225,9.4,-999.0,60,-99.99,,,0.00,Acu-Link.com,2013-02-20 04:02:00,
2013-02-19 21:17:00,48.2,35.8,29.58,WSW,247,7.8,-999.0,62,-99.99,,,0.00,Acu-Link.com,2013-02-20 04:17:00,
2013-02-19 21:32:00,47.8,35.9,29.57,SSE,157,9.4,-999.0,63,-99.99,,,0.00,Acu-Link.com,2013-02-20 04:32:00,
2013-02-19 21:48:00,47.1,36.4,29.58,South,180,6.7,-999.0,66,-99.99,,,0.00,Acu-Link.com,2013-02-20 04:48:00,
2013-02-19 22:03:00,46.4,36.8,29.58,South,180,9.8,-999.0,69,-99.99,,,0.00,Acu-Link.com,2013-02-20 05:03:00,
2013-02-19 22:18:00,46.0,37.2,29.58,SSW,202,9.4,-999.0,71,-99.99,,,0.00,Acu-Link.com,2013-02-20 05:18:00,
2013-02-19 22:33:00,45.7,36.8,29.59,SSE,157,9.4,-999.0,71,-99.99,,,0.00,Acu-Link.com,2013-02-20 05:33:00,
2013-02-19 22:48:00,45.7,36.8,29.59,SW,225,14.1,-999.0,71,-99.99,,,0.00,Acu-Link.com,2013-02-20 05:48:00,
2013-02-19 23:03:00,45.5,37.0,29.58,SSE,157,5.1,-999.0,72,-99.99,,,0.00,Acu-Link.com,2013-02-20 06:03:00,
2013-02-19 23:19:00,45.1,37.0,29.57,SSW,202,8.9,-999.0,73,-99.99,,,0.00,Acu-Link.com,2013-02-20 06:19:00,
2013-02-19 23:34:00,45.0,37.2,29.57,SW,225,11.0,-999.0,74,-99.99,,,0.00,Acu-Link.com,2013-02-20 06:34:00,
2013-02-19 23:49:00,44.6,37.2,29.56,West,270,5.1,-999.0,75,-99.99,,,0.00,Acu-Link.com,2013-02-20 06:49:00,